TimePDT,TemperatureF,Dew PointF,Humidity,Sea Level PressureIn,VisibilityMPH,Wind Direction,Wind SpeedMPH,Gust SpeedMPH,PrecipitationIn,Events,Conditions,WindDirDegrees,DateUTC
12:47 AM,64.0,57.9,80,29.80,10.0,Calm,Calm,-,N/A,,Clear,0,2013-09-22 07:47:00
1:47 AM,64.0,57.9,80,29.80,10.0,Calm,Calm,-,N/A,,Clear,0,2013-09-22 08:47:00
2:47 AM,63.0,57.0,81,29.80,10.0,Calm,Calm,-,N/A,,Clear,0,2013-09-22 09:47:00
3:47 AM,63.0,57.0,81,29.79,10.0,Calm,Calm,-,N/A,,Clear,0,2013-09-22 10:47:00
4:47 AM,62.1,57.0,84,29.80,10.0,Calm,Calm,-,N/A,,Clear,0,2013-09-22 11:47:00
5:47 AM,61.0,55.9,83,29.80,10.0,Calm,Calm,-,N/A,,Clear,0,2013-09-22 12:47:00
6:47 AM,60.1,55.9,86,29.81,10.0,Calm,Calm,-,N/A,,Clear,0,2013-09-22 13:47:00
7:47 AM,63.0,55.9,78,29.82,10.0,Calm,Calm,-,N/A,,Clear,0,2013-09-22 14:47:00
8:47 AM,68.0,57.0,68,29.83,10.0,Calm,Calm,-,N/A,,Clear,0,2013-09-22 15:47:00
9:47 AM,70.0,52.0,53,29.84,10.0,Calm,Calm,-,N/A,,Clear,0,2013-09-22 16:47:00
10:47 AM,75.0,52.0,44,29.82,10.0,Variable,3.5,-,N/A,,Clear,0,2013-09-22 17:47:00
11:47 AM,75.9,53.1,45,29.83,10.0,Variable,3.5,-,N/A,,Clear,0,2013-09-22 18:47:00
12:47 PM,75.0,52.0,44,29.82,10.0,Calm,Calm,-,N/A,,Clear,0,2013-09-22 19:47:00
1:47 PM,73.9,53.1,48,29.81,10.0,Variable,4.6,-,N/A,,Clear,0,2013-09-22 20:47:00
2:47 PM,73.0,50.0,44,29.80,10.0,West,6.9,-,N/A,,Clear,270,2013-09-22 21:47:00
3:47 PM,73.9,46.9,38,29.78,10.0,Variable,5.8,-,N/A,,Clear,0,2013-09-22 22:47:00
4:47 PM,73.0,48.9,42,29.78,10.0,Variable,3.5,-,N/A,,Clear,0,2013-09-22 23:47:00
5:47 PM,72.0,51.1,48,29.78,10.0,Calm,Calm,-,N/A,,Clear,0,2013-09-23 00:47:00
6:47 PM,68.0,52.0,56,29.79,10.0,West,3.5,-,N/A,,Clear,270,2013-09-23 01:47:00
7:47 PM,66.9,52.0,59,29.80,10.0,West,3.5,-,N/A,,Clear,260,2013-09-23 02:47:00
8:47 PM,64.9,53.1,65,29.81,10.0,Calm,Calm,-,N/A,,Clear,0,2013-09-23 03:47:00
9:47 PM,64.9,54.0,68,29.82,10.0,Calm,Calm,-,N/A,,Clear,0,2013-09-23 04:47:00
10:47 PM,64.0,54.0,70,29.82,10.0,Calm,Calm,-,N/A,,Clear,0,2013-09-23 05:47:00
11:47 PM,63.0,54.0,72,29.83,10.0,Calm,Calm,-,N/A,,Clear,0,2013-09-23 06:47:00